Showing default

EXPLORER 27, 1328

Orbit data source: Space-Track

EXPLORER 27, 1328 is a payload satellite owned by GSFC (US) in LEO that was launched on Thu, 29 Apr 1965 UTC via an SCOUT X-4 launch vehicle from the Wallops Island (WLPIS). Payload-class satellites include a variety of spacecraft equipped with specific instruments for various scientific and technological missions. These include communications satellites like Starlink; space stations such as the ISS; scientific satellites like the Hubble; Earth observation satellites from companies like Planet Labs, Umbra, and HawkEye 360; GPS; miniature CubeSats for education and research; and military/defense satellites.

Loading next visibility...
Identifier
1328, 1965-032A
Orbit
LEO
Country
Flag of USUS
Related business
Manufacturer
APL
Mission
Spacecraft
Bus & Motor
TRANSIT 5, Unknown motor
Mass
55 kg wet, 55 kg dry
Launch date (UTC)
1965-04-29 (61 years ago)
Launch vehicle
SCOUT X-4
Launch site
Wallops Island (WLPIS)
Object type
Payload
Rocket body
Debris
Shape & HBR
OCT CYL + 4 PAN, 2.3 m
Radar Cross Section
Medium (>0.1 m² and <1 m²)

Expand to show TLE details & history
Last TLE update: 14 hours ago

TLE from 14 hours ago
0 EXPLORER 27
1 01328U 65032A   26208.33098222 -.00000034  00000-0  75743-4 0  9995
2 01328  41.1810 205.5110 0240515 154.8509 206.4179 13.38930810993718
Epoch: 2026-07-27T07:56Z
TLE epoch observation values (Epoch: 2026-07-27T07:56:36.863Z)
Latitude
-0.00005°
Longitude
141.34125°
Altitude
1,275.048 km
Speed
7.141 km/s
True Right ascension
13h 42m 02s
True Declination
0° 00' 00"
Sunlit
Object was in daylight at epoch
Visualization orbit readout
Latitude
Unknown
Longitude
Unknown
Altitude
Unknown
Speed
Unknown
Apparent Right ascension
Unknown
Apparent Declination
Unknown
Sunlit
N/A
Visualization observer readout
Local Sidereal Time
11:23:42
Azimuth
Unknown
Elevation
Unknown
Doppler factor
Unknown
Orbital elements
Apogee altitude
1,295.556 km
Perigee altitude
935.098 km
Semi-major axis
7,493.464 km
Eccentricity
0.02405
Inclination
41.181°
RAAN
205.511°
Arg. of periapsis
154.8509°
True anomaly
205.22394°
Mean anomaly
206.4179°
Eccentric anomaly
205.81775°
Mean motion
3.34595 °/min
Orbital period
107.59 mins
BSTAR
0.000075743
Loading maneuver chart data...
Computing Atmospheric mass density...
Loading historical data...
Loading historical data...
Loading historical data...
Loading historical data...
Loading historical data...
Loading historical data...
Loading historical data...
Other satellites on launch #32 in the year 1965 (1965-04-29 UTC)

Documentation

Showing up to 5 results
|